Regional Weather Roundup
Issued by NWS

Home | Current Version | Previous Version | Text Only | Print | Product List | Glossary Off
Versions: 1 2 3 4 5 6 7 8 9 10 11 12 13 14 15 16 17 18 19 20 21 22 23 24 25 26 27 28 29 30 31 32 33 34 35 36 37 38 39 40 41 42 43 44 45 46 47 48 49 50

000
ASUS43 KOAX 241102
RWRNE

WEATHER ROUNDUP FOR NEBRASKA
NATIONAL WEATHER SERVICE OMAHA NE
600 AM CDT SAT JUN 24 2017

NOTES: SATELLITE DATA IS BEING USED TO AUGMENT CLOUD COVER ABOVE
       12000 FEET.
       "FAIR" INDICATES FEW OR NO CLOUDS BELOW 12,000 FEET WITH NO
       SIGNIFICANT WEATHER AND/OR OBSTRUCTIONS TO VISIBILITY.

  * THESE STATIONS DO NOT REPORT WEATHER SUCH AS RAIN...SNOW OR FOG.

NEZ001>004-019>022-054>056-241200-
NEBRASKA PANHANDLE

CITY           SKY/WX    TMP DP  RH WIND       PRES   REMARKS
SCOTTSBLUFF    CLOUDY    53  42  66 SW3       30.29R
ALLIANCE       CLOUDY    48  43  82 W5        30.27S
CHADRON        CLOUDY    43  37  79 SW5       30.26S
GORDON         FAIR      41  35  77 W5        30.25S
KIMBALL        CLOUDY    53  41  65 E3        30.31S
SIDNEY         CLOUDY    54  39  57 E3        30.30S
$$

NEZ057>060-069>072-079>082-241200-
SOUTHWEST NEBRASKA

CITY           SKY/WX    TMP DP  RH WIND       PRES   REMARKS
NORTH PLATTE   CLOUDY    51  41  68 NW5       30.25S
IMPERIAL       CLOUDY    54  47  77 CALM      30.26S
LEXINGTON      CLOUDY    51  46  84 NW5       30.24S
MCCOOK         CLEAR     47  44  90 SW5       30.24S
OGALLALA       CLOUDY    55  44  64 CALM      30.27R
$$

NEZ005>010-023>029-035>040-094-241200-
NORTH CENTRAL NEBRASKA

CITY           SKY/WX    TMP DP  RH WIND       PRES   REMARKS
VALENTINE      CLEAR     41  31  67 SW7       30.22R
AINSWORTH      CLEAR     43  38  83 W5        30.22R
BROKEN BOW     CLOUDY    48  43  82 S3        30.22S
O`NEILL        CLEAR     44  37  76 W6        30.19S
ORD            PTCLDY    43  39  86 NW3       30.20S
THEDFORD       CLOUDY    48  38  67 W3        30.25R
$$

NEZ041-046>049-061>064-073>077-083>087-241200-
SOUTH CENTRAL NEBRASKA

CITY           SKY/WX    TMP DP  RH WIND       PRES   REMARKS
GRAND ISLAND   CLEAR     47  43  86 W6        30.22R
AURORA         CLEAR     45  42  88 W6        30.21R
HASTINGS       CLOUDY    51  42  71 W3        30.23R
HEBRON         CLEAR     51  46  82 CALM      30.20S
HOLDREGE       CLOUDY    50  44  79 CALM      30.23R
KEARNEY *      CLOUDY    52  39  62 NW6       30.23R
$$

NEZ011>018-030>034-042>045-241200-
NORTHEAST NEBRASKA

CITY           SKY/WX    TMP DP  RH WIND       PRES   REMARKS
NORFOLK        CLEAR     48  39  71 W8        30.17S
ALBION         CLEAR     41  37  87 NW3       30.20S
BLAIR          CLEAR     52  42  70 W3        30.15R
FREMONT        CLEAR     49  42  79 W5        30.17R
TEKAMAH        CLEAR     50  41  71 W5        30.15R
WAYNE          CLEAR     44  42  95 S3        30.16S
$$

NEZ050>053-065>068-078-088>093-241200-
SOUTHEAST NEBRASKA

CITY           SKY/WX    TMP DP  RH WIND       PRES   REMARKS
LINCOLN        CLEAR     50  44  80 CALM      30.19R
OMAHA EPPLEY   CLEAR     54  46  74 CALM      30.15R
BEATRICE       CLEAR     49  47  93 W3        30.18R
FALLS CITY     CLEAR     53  48  83 W6        30.14S
NEBRASKA CITY  CLEAR     54  46  73 NW7       30.16R
PLATTSMOUTH    CLEAR     52  45  77 NW5       30.16R
$$

NEZ044-045-051>053-067-241200-
OMAHA AREA

CITY           SKY/WX    TMP DP  RH WIND       PRES   REMARKS
OMAHA EPPLEY   CLEAR     54  46  74 CALM      30.15R
BLAIR          CLEAR     52  42  70 W3        30.15R
FREMONT        CLEAR     49  42  79 W5        30.17R
MILLARD        CLEAR     52  48  86 CALM      30.15S
OFFUTT AFB     CLEAR     51  45  80 NW8       30.15R
PLATTSMOUTH    CLEAR     52  45  77 NW5       30.16R
WAHOO          FAIR      47  41  78 CALM      30.17R
$$



USA.gov is the U.S. government's official web portal to all federal, state and local government web resources and services.